Regional Weather Roundup
Issued by NWS

Home | Current Version | Previous Version | Text Only | Print | Product List | Glossary Off
Versions: 1 2 3 4 5 6 7 8 9 10 11 12 13 14 15 16 17 18 19 20 21 22 23 24 25 26 27 28 29 30 31 32 33 34 35 36 37 38 39 40 41 42 43 44 45 46 47 48 49 50

000
ASUS43 KLMK 020102
RWRKY
KENTUCKY REGIONAL WEATHER ROUNDUP
NATIONAL WEATHER SERVICE LOUISVILLE KY
900 PM EDT MON SEP 01 2014

NOTE "FAIR" INDICATES FEW OR NO CLOUDS BELOW 12,000 FEET
WITH NO SIGNIFICANT WEATHER AND/OR OBSTRUCTIONS TO VISIBILITY.

KYZ001>023-026-027-061>063-070>075-020200-
WESTERN AND SOUTH CENTRAL KENTUCKY

CITY           SKY/WX    TMP DP  RH WIND       PRES   REMARKS
PADUCAH        CLEAR     82  72  71 S5        29.93F
HENDERSON      PTCLDY    77  72  83 SW3       29.94S
OWENSBORO      CLEAR     79  73  83 S6        29.96S
HOPKINSVILLE   CLEAR     81  73  77 S2        29.98S
BOWLING GREEN  PTCLDY    82  69  64 S5        30.00R
GLASGOW        MOCLDY    77  68  73 CALM      30.01R
$$

KYZ024-025-028>034-038-045-046-053-020200-
NORTH CENTRAL KENTUCKY

CITY           SKY/WX    TMP DP  RH WIND       PRES   REMARKS
LOUISVILLE/SDF PTCLDY    82  72  71 SW10      29.96R
LOUISVILLE/LOU PTCLDY    82  71  69 SW6       29.97R
FORT KNOX      PTCLDY    77  72  83 S6        29.98R
$$

KYZ035>037-039>044-047>052-055>060-089>105-020200-
NORTHEAST KENTUCKY

CITY           SKY/WX    TMP DP  RH WIND       PRES   REMARKS
LEXINGTON      MOCLDY    78  72  81 SW3       30.01R
COVINGTON      MOCLDY    80  68  66 SW14G20   29.94S
FRANKFORT      PTCLDY    77  72  84 SW5       29.98R
$$

KYZ054-064>069-076>088-106>120-020200-
SOUTHEAST KENTUCKY

CITY           SKY/WX    TMP DP  RH WIND       PRES   REMARKS
JACKSON        MOCLDY    79  67  66 CALM      30.05R
LONDON         PTCLDY    82  66  58 SW5       30.05R
SOMERSET       PTCLDY    77  64  65 CALM      30.05R
MIDDLESBORO    MOCLDY    76  72  86 CALM      30.07R
MONTICELLO     MOCLDY    74  71  90 CALM      30.06R
$$




USA.gov is the U.S. government's official web portal to all federal, state and local government web resources and services.